Location: Domont
(49.0278°N, 2.3264°E)
Time: 04:01:27
(UTC+00:00)

Orbus 7S? - Pass Details

Date: 07 June 2022
Orbit: 345 x 6369 km, 56.9° (Epoch: 01 July)

Event Time Altitude Azimuth Distance (km) Brightness Sun altitude
Rises 02:27:59 0° 281° (W) 6,251 8.4 -10.0°
Reaches altitude 10° 02:31:03 10° 284° (WNW) 5,764 8.2 -9.7°
Maximum altitude 02:53:05 73° 12° (NNE) 5,343 8.4 -7.4°
Drops below altitude 10° 03:35:38 10° 102° (ESE) 9,706 10.2 -2.4°
Sets 03:42:59 0° 105° (ESE) 10,362 10.4 -1.4°
